Regional Weather Roundup
Issued by NWS

Home | Current Version | Previous Version | Graphics & Text | Print | Product List | Glossary On
Versions: 1 2 3 4 5 6 7 8 9 10 11 12 13 14 15 16 17 18 19 20 21 22 23 24 25 26 27 28 29 30 31 32 33 34 35 36 37 38 39 40 41 42 43 44 45 46 47 48 49 50
000
ASUS43 KLSX 231757
RWRMO

WEATHER SUMMARY FOR MISSOURI
NATIONAL WEATHER SERVICE SPRINGFIELD MO
100 PM CDT SUN JUL 23 2017

NOTE: "FAIR" INDICATES FEW OR NO CLOUDS BELOW 12,000 FEET WITH NO
       SIGNIFICANT WEATHER AND/OR OBSTRUCTIONS TO VISIBILITY.
       CURRENT SKY AND/OR WEATHER CONDITIONS ARE NOT AVAILABLE FOR
       CHILLICOTHE AND FARMINGTON.

MOZ001>031-035>038-043-044-053-054-231900-
...NORTHERN AND WESTERN MISSOURI...

CITY           SKY/WX    TMP DP  RH WIND       PRES   REMARKS
KANSAS CTY INT MOSUNNY   89  73  59 N7        29.93F HX  97
6HR MIN TEMP:  71; 6HR MAX TEMP:  89;

LEE`S SUMMIT   MOSUNNY   87  74  64 N3        29.94S HX  95
6HR MIN TEMP:  70; 6HR MAX TEMP:  88;

ST JOSEPH      MOSUNNY   88  78  72 NW6       29.93S HX 101
6HR MIN TEMP:  72; 6HR MAX TEMP:  89;

CHILLICOTHE      N/A     90  77  65 VRB5      29.91F HX 103
6HR MIN TEMP:  71; 6HR MAX TEMP:  90;


$$
MOZ066>068-077>081-088>096-101>105-231900-
...SOUTHWEST MISSOURI...

CITY           SKY/WX    TMP DP  RH WIND       PRES   REMARKS
SPRINGFIELD    PTSUNNY   86  65  49 NW6       29.97S
6HR MIN TEMP:  72; 6HR MAX TEMP:  87;

JOPLIN         CLOUDY    88  68  51 SE7       29.97F HX  91
6HR MIN TEMP:  75; 6HR MAX TEMP:  88; 6HR PCP:  0.01;

BRANSON        PTSUNNY   91  63  38 E8        29.97S HX  92

$$
MOZ032>034-039>042-045>050-055>058-069>072-231900-
...CENTRAL MISSOURI...

CITY           SKY/WX    TMP DP  RH WIND       PRES   REMARKS
COLUMBIA       NOT AVBL
JEFFERSON CITY CLOUDY    86  72  62 CALM      29.92F HX  92
6HR MIN TEMP:  71; 6HR MAX TEMP:  86;

ROLLA          CLOUDY    82  68  62 W3        29.95F
6HR MIN TEMP:  68; 6HR MAX TEMP:  83;

SEDALIA        MOSUNNY   84  75  74 S7        29.95F HX  92
6HR MIN TEMP:  71; 6HR MAX TEMP:  85;


$$
MOZ051-052-059>065-231900-
...EAST CENTRAL MISSOURI...

CITY           SKY/WX    TMP DP  RH WIND       PRES   REMARKS
ST LOUIS INTL  PTSUNNY   90  66  45 W6        29.91F HX  92
6HR MIN TEMP:  76; 6HR MAX TEMP:  90;


$$
MOZ072>076-082>087-097>100-106>115-231900-
...SOUTH CENTRAL AND SOUTHEAST MISSOURI...

CITY           SKY/WX    TMP DP  RH WIND       PRES   REMARKS
CAPE GIRARDEAU SUNNY     90  63  40 SE5       29.88F HX  91
6HR MIN TEMP:  79; 6HR MAX TEMP:  90;

POPLAR BLUFF   PTSUNNY   88  77  69 NE7       29.88F HX 100
6HR MIN TEMP:  79; 6HR MAX TEMP:  89;

WEST PLAINS    MOSUNNY   94  61  33 NE7       29.95F HX  94
6HR MIN TEMP:  77; 6HR MAX TEMP:  95;


$$


USA.gov is the U.S. government's official web portal to all federal, state and local government web resources and services.